NATO41 LSZH-EGPH

Flight info

Callsign NATO41
Flight time N/A
Altitude 48000
Route VEBIT T10 TORPA DCT REKLA DCT RLP DCT ROTSI DCT KOTUN DCT AMAXA/N0178F080 DCT VESAN DCT RATUK DCT SOVAT L613 LEHOC DCT INPIP
Aircraft F35/M-SBDGRY/S

Departure

Time 2026-04-25 22:30
Airport Zürich Airport (LSZH)

Arrival

Time N/A
Airport Edinburgh Airport (EGPH)
Time Latitude Longitude Altitude Speed Heading
2026-04-25 22:16 47.46308 8.55315 1400 ft 0 kts
2026-04-25 22:21 47.46306 8.55295 1397 ft 4 kts 192°
2026-04-25 22:21 47.46250 8.55312 1395 ft 5 kts 80°
2026-04-25 22:22 47.46267 8.55347 1408 ft 0 kts 91°
2026-04-25 22:22 47.46261 8.55419 1402 ft 17 kts 96°
2026-04-25 22:23 47.46246 8.55635 1395 ft 23 kts 96°
2026-04-25 22:23 47.46229 8.55880 1396 ft 25 kts 97°
2026-04-25 22:23 47.46151 8.56073 1404 ft 21 kts 137°
2026-04-25 22:23 47.46044 8.56224 1399 ft 19 kts 119°
2026-04-25 22:24 47.46049 8.56302 1399 ft 0 kts 58°
2026-04-25 22:29 47.46077 8.56333 1399 ft 14 kts 20°
2026-04-25 22:30 47.46366 8.56119 1391 ft 28 kts 317°
2026-04-25 22:30 47.46992 8.55270 1425 ft 232 kts 311°
2026-04-25 22:30 47.48505 8.53292 2365 ft 290 kts 311°
2026-04-25 22:30 47.49463 8.52259 3171 ft 234 kts 332°
2026-04-25 22:31 47.51326 8.50432 4207 ft 250 kts 300°
2026-04-25 22:31 47.51972 8.48069 4449 ft 251 kts 270°
2026-04-25 22:31 47.51787 8.45508 4590 ft 252 kts 248°
2026-04-25 22:31 47.51234 8.43050 4654 ft 251 kts 240°
2026-04-25 22:32 47.50447 8.40752 4774 ft 250 kts 231°
2026-04-25 22:32 47.49435 8.38647 4934 ft 250 kts 223°
2026-04-25 22:32 47.48230 8.36847 5030 ft 247 kts 208°
2026-04-25 22:32 47.46627 8.35770 5097 ft 249 kts 191°
2026-04-25 22:33 47.44962 8.35144 5071 ft 248 kts 182°
2026-04-25 22:33 47.42918 8.34946 5734 ft 387 kts 169°
2026-04-25 22:33 47.40220 8.34991 6198 ft 387 kts 180°
2026-04-25 22:33 47.37736 8.33620 5868 ft 382 kts 209°
2026-04-25 22:34 47.36125 8.30588 5456 ft 385 kts 247°
2026-04-25 22:34 47.35308 8.26832 5272 ft 385 kts 241°
2026-04-25 22:34 47.34609 8.23071 5132 ft 384 kts 261°
2026-04-25 22:34 47.35311 8.19396 4281 ft 373 kts 310°
2026-04-25 22:35 47.37602 8.17841 3152 ft 365 kts 358°
2026-04-25 22:35 47.39097 8.20387 2229 ft 359 kts 68°
2026-04-25 22:35 47.39714 8.23985 3032 ft 361 kts 64°
2026-04-25 22:35 47.40516 8.27557 3869 ft 372 kts 65°
2026-04-25 22:36 47.40973 8.31274 4974 ft 375 kts 77°
2026-04-25 22:36 47.41235 8.35213 5981 ft 386 kts 71°
2026-04-25 22:36 47.41897 8.39094 5597 ft 386 kts 65°
2026-04-25 22:36 47.42673 8.42761 4548 ft 376 kts 63°
2026-04-25 22:37 47.43496 8.46374 3698 ft 369 kts 63°
2026-04-25 22:37 47.44435 8.49874 3079 ft 366 kts 55°
2026-04-25 22:37 47.45624 8.53174 2191 ft 364 kts 56°
2026-04-25 22:37 47.46801 8.55901 2475 ft 221 kts 32°
2026-04-25 22:38 47.47395 8.57560 2247 ft 190 kts 124°
2026-04-25 22:38 47.46213 8.58250 1800 ft 174 kts 206°
2026-04-25 22:38 47.45678 8.56826 1410 ft 178 kts 270°
2026-04-25 22:38 47.45763 8.55471 1402 ft 73 kts 283°
2026-04-25 22:39 47.45952 8.55136 1389 ft 38 kts 337°
2026-04-25 22:39 47.46177 8.54985 1395 ft 32 kts 349°
2026-04-25 22:39 47.46218 8.55085 1401 ft 6 kts 156°
2026-04-25 22:39 47.46217 8.55085 1401 ft 0 kts 156°